Location: Buckland
(65.9785°N, 161.1281°W)
Time: 20:11:05
(UTC+00:00)

Transit 4A - Pass Details

Date: 10 October 2022
Orbit: 871 x 972 km, 66.8° (Epoch: 01 December)

Event Time Altitude Azimuth Distance (km) Brightness Sun altitude
Exits shadow 15:07:51 12° 295° (WNW) 2,443 9.7 -14.6°
Maximum altitude 15:12:54 39° 231° (SW) 1,305 8.2 -14.1°
Drops below altitude 10° 15:18:14 10° 164° (SSE) 2,523 10.2 -13.6°
Sets 15:20:50 0° 157° (SSE) 3,457 11.0 -13.3°
